User: anonymous   Login
Location: Muenchen
(48.1800°N, 11.5800°E)
Time: 12:50:20
(UTC+01:00)
Language:

Cosmos 2233 Rocket - Orbit

View from above orbital plane
View from above orbital plane
View from above satellite
View from above satellite

Ground track
Ground track

The orbit data is extracted from the following two-line orbital elements,

1 22488U 93008B   16345.80801862  .00000010  00000-0 -58527-5 0  9990
2 22488  82.9435 218.6135 0026247  35.1818  17.9910 13.77713509198323
Epoch (UTC): 10 December 2016 19:23:32
Eccentricity: 0.0026247
inclination: 82.9435°
perigee height: 953 km
apogee height: 991 km
right ascension of ascending node: 218.6135°
argument of perigee: 35.1818°
revolutions per day: 13.77713509
mean anomaly at epoch: 17.9910°
orbit number at epoch: 19832

The dashed part of the orbit path shows where the satellite is in the earth's shadow,  

DLR